Waarnemingen

Advertentie
Mijn weer
Arkona, Duitsland (10091): temperatuur & dauwpunt: 13.10.2017 12:00:00 - 19.10.2017 12:00:00 (CEST)Arkona, Duitsland (10091): temperatuur 5cm & temperatuur -5cm: 13.10.2017 12:00:00 - 19.10.2017 12:00:00 (CEST)Arkona, Duitsland (10091): temperatuur -20cm & temperatuur -100cm: 13.10.2017 12:00:00 - 19.10.2017 12:00:00 (CEST)Arkona, Duitsland (10091): water temperatuur: 13.10.2017 12:00:00 - 19.10.2017 12:00:00 (CEST)Arkona, Duitsland (10091): windsnelheid & windstoten: 13.10.2017 12:00:00 - 19.10.2017 12:00:00 (CEST)Arkona, Duitsland (10091): windrichting: 13.10.2017 12:00:00 - 19.10.2017 12:00:00 (CEST)Arkona, Duitsland (10091): luchtdruk: 13.10.2017 12:00:00 - 19.10.2017 12:00:00 (CEST)Arkona, Duitsland (10091): zicht: 13.10.2017 12:00:00 - 19.10.2017 12:00:00 (CEST)Arkona, Duitsland (10091): Zonneschijnduur: 13.10.2017 12:00:00 - 19.10.2017 12:00:00 (CEST)Arkona, Duitsland (10091): neerslag: 13.10.2017 12:00:00 - 19.10.2017 12:00:00 (CEST)
Datum & Tijd tt [°C] td [°C] tt 5cm [°C] tt -5cm [°C] tt -20cm [°C] tt -100cm [°C] tw [°C] ff [km/u] ff [kn] fx [km/u] fx [kn] dd ppp [hPa] vv [km] sd [min] rr [mm]
19.10.2017 12:00:00 12,3 11,7 13,3 13,6 12,1 13,1 12,4 12 7 28 15 O 1017,1 13 6 0,0
19.10.2017 11:00:00 12,2 11,8 12,7 12,7 12,0 13,1 12,4 15 8 26 14 O 1017,1 13 0 0,0
19.10.2017 10:00:00 12,1 11,3 11,9 11,8 11,9 13,1 12,4 7 4 21 11 O 1017,1 19 0 0,0
19.10.2017 09:00:00 11,9 11,8 11,7 11,4 11,9 13,1 12,4 5 3 16 9 O 1017,0 10 0 0,0
19.10.2017 08:00:00 11,9 11,7 11,5 11,1 11,9 13,1 12,4 6 3 17 9 O 1016,6 9 0 0,0
19.10.2017 07:00:00 11,7 11,4 11,1 11,0 11,9 13,1 12,4 7 4 16 9 O 1016,3 15 0 0,0
19.10.2017 06:00:00 11,8 11,6 11,0 11,0 12,0 13,1 12,4 6 4 15 8 O 1016,4 9 0 0,0
19.10.2017 05:00:00 11,7 10,8 10,9 10,9 12,0 13,1 12,4 9 5 13 7 OZO 1016,4 26 0 0,0
19.10.2017 04:00:00 11,6 10,9 10,7 10,7 12,1 13,1 12,4 10 6 16 9 ZO 1016,2 13 0 0,0
19.10.2017 03:00:00 11,4 11,3 10,6 10,6 12,3 13,1 12,4 11 6 15 8 OZO 1016,2 7 0 0,0
19.10.2017 02:00:00 11,1 11,1 9,8 10,6 12,4 13,1 12,5 5 3 13 7 O 1016,4 4,2 0 0,0
19.10.2017 01:00:00 11,2 11,2 9,7 11,2 12,6 13,1 12,5 10 5 15 8 O 1016,3 8 0 0,0
19.10.2017 00:00:00 11,7 11,7 10,9 11,7 12,6 13,1 12,5 10 5 14 8 O 1016,4 8 0 0,0
18.10.2017 23:00:00 12,1 12,0 11,8 12,0 12,7 13,1 12,5 6 3 7 4 O 1016,5 3,2 0 0,0
18.10.2017 22:00:00 12,0 11,3 11,4 12,0 12,8 13,1 12,5 5 3 6 3 O 1016,4 11 0 0,0
18.10.2017 21:00:00 12,1 10,6 11,4 12,0 12,9 13,1 12,5 2 1 6 4 NNW 1016,1 20 0 0,0
18.10.2017 20:00:00 11,9 11,6 11,3 11,8 13,1 13,1 12,5 1 1 7 4 W 1015,9 8 0 0,0
18.10.2017 19:00:00 11,6 11,1 9,5 12,1 13,3 13,1 12,5 7 4 10 6 W 1015,9 9 0 0,0
18.10.2017 18:00:00 12,3 11,3 11,2 13,2 13,3 13,1 12,5 10 5 16 9 W 1015,7 11 31 0,0
18.10.2017 17:00:00 13,3 10,9 13,3 14,2 13,3 13,1 12,5 13 7 19 10 W 1015,5 20 27 0,0
18.10.2017 16:00:00 13,7 10,5 14,5 15,0 13,1 13,1 12,5 14 8 22 12 W 1015,6 21 42 0,0
18.10.2017 15:00:00 13,7 10,4 14,6 15,6 12,8 13,1 12,5 16 9 25 14 W 1015,5 19 49 0,0
18.10.2017 14:00:00 13,9 11,2 16,4 15,9 12,3 13,2 12,5 20 11 27 14 W 1015,7 13 39 0,0
18.10.2017 13:00:00 14,6 11,8 17,0 15,6 11,9 13,2 12,4 18 10 27 14 WZW 1015,7 12 47 0,0
18.10.2017 12:00:00 13,9 12,0 15,7 13,9 11,5 13,1 12,4 19 11 31 17 WZW 1016,0 12 57 0,0
18.10.2017 11:00:00 13,0 11,2 13,0 11,9 11,3 13,2 12,4 21 12 32 17 W 1015,8 14 57 0,0
18.10.2017 10:00:00 12,2 11,4 11,5 10,4 11,3 13,1 12,4 24 13 30 16 W 1015,6 8 57 0,0
18.10.2017 09:00:00 11,2 11,0 10,2 9,7 11,4 13,1 12,4 17 9 27 14 WZW 1015,4 8 18 0,0
18.10.2017 08:00:00 11,0 10,4 9,7 9,5 11,5 13,1 12,4 23 12 32 17 W 1015,0 11 0 0,0
18.10.2017 07:00:00 10,9 10,3 9,5 9,6 11,6 13,1 12,4 23 13 34 18 WZW 1014,8 11 0 0,0
18.10.2017 06:00:00 11,5 10,6 10,0 9,8 11,8 13,1 12,4 26 14 35 19 WZW 1014,7 12 0 0,0
18.10.2017 05:00:00 11,3 10,2 9,9 9,9 11,9 13,1 12,4 27 15 36 19 WZW 1014,7 12 0 0,0
18.10.2017 04:00:00 11,7 10,8 10,2 10,1 12,0 13,1 12,4 26 14 36 19 WZW 1015,1 11 0 0,0
18.10.2017 03:00:00 11,7 10,7 10,3 10,3 12,1 13,1 12,4 27 15 38 20 WZW 1015,5 13 0 0,0
18.10.2017 02:00:00 12,0 10,6 10,9 10,5 12,2 13,1 12,4 30 16 40 22 W 1015,6 15 0 0,0
18.10.2017 01:00:00 12,2 10,4 10,9 10,6 12,4 13,1 12,4 34 19 42 23 W 1015,6 16 0 0,0
18.10.2017 00:00:00 12,1 10,0 10,7 10,6 12,5 13,1 12,4 26 14 40 22 WZW 1016,1 19 0 0,0
17.10.2017 23:00:00 12,9 9,5 11,8 11,0 12,6 13,1 12,4 29 16 39 21 WZW 1016,2 22 0 0,0
17.10.2017 22:00:00 12,5 9,3 10,9 10,8 12,8 13,1 12,5 25 14 34 18 WZW 1016,4 22 0 0,0
17.10.2017 21:00:00 12,7 9,8 11,0 11,2 13,0 13,1 12,5 25 13 35 19 WZW 1016,4 21 0 0,0
17.10.2017 20:00:00 12,8 10,2 11,4 11,6 13,2 13,1 12,5 25 13 30 16 WZW 1016,4 18 0 0,0
17.10.2017 19:00:00 13,0 10,5 11,7 12,0 13,4 13,1 12,6 24 13 30 16 WZW 1016,3 17 0 0,0
17.10.2017 18:00:00 13,6 9,8 12,2 12,7 13,5 13,1 12,6 24 13 44 24 WZW 1016,3 23 0 0,0
17.10.2017 17:00:00 14,4 10,4 13,4 13,7 13,5 13,1 12,6 30 16 45 24 WZW 1016,5 20 0 0,0
17.10.2017 16:00:00 14,8 11,2 14,7 14,5 13,4 13,1 12,6 35 19 49 27 WZW 1016,7 19 60 0,0
17.10.2017 15:00:00 15,3 11,7 15,5 14,7 13,3 13,1 12,6 32 17 55 30 WZW 1017,4 19 52 0,0
17.10.2017 14:00:00 15,4 11,6 15,4 14,6 13,1 13,1 12,6 37 20 48 26 WZW 1017,6 18 0 0,0
17.10.2017 13:00:00 15,8 11,8 15,5 14,5 12,9 13,1 12,5 34 19 51 27 WZW 1017,9 20 0 0,0
17.10.2017 12:00:00 16,0 13,0 15,6 14,2 12,7 13,1 12,5 29 16 39 21 WZW 1018,0 14 0 0,0
17.10.2017 11:00:00 15,7 13,5 15,0 13,5 12,5 13,1 12,6 26 14 34 19 WZW 1018,1 9 45 0,0
17.10.2017 10:00:00 14,7 13,2 13,6 12,5 12,5 13,1 12,5 26 14 37 20 WZW 1018,2 8 0 0,0
17.10.2017 09:00:00 14,6 12,7 12,9 11,9 12,5 13,1 12,5 28 15 36 19 WZW 1018,2 11 0 0,0
17.10.2017 08:00:00 14,1 12,5 12,3 11,6 12,6 13,1 12,5 27 15 35 19 WZW 1018,0 10 0 0,0
17.10.2017 07:00:00 13,3 12,5 12,0 11,7 12,6 13,1 12,4 27 15 34 18 ZW 1017,8 6 0 0,0
17.10.2017 06:00:00 13,5 12,9 12,2 11,8 12,6 13,1 12,4 27 14 32 17 ZW 1017,9 5 0 0,0
17.10.2017 05:00:00 13,2 13,1 12,4 11,9 12,7 13,1 12,4 29 16 31 17 ZW 1018,2 2,3 0 0,0
17.10.2017 04:00:00 13,2 13,2 12,5 11,9 12,7 13,1 12,4 21 12 29 15 ZZW 1018,8 2,0 0 0,0
17.10.2017 03:00:00 13,0 12,9 12,5 12,0 12,8 13,1 12,4 21 11 30 16 Z 1019,5 1,4 0 0,0
17.10.2017 02:00:00 13,2 12,7 12,2 11,7 12,8 13,1 12,4 20 11 26 14 Z 1020,0 2,4 0 0,0
17.10.2017 01:00:00 13,0 12,5 12,0 11,6 13,0 13,1 12,4 18 10 21 11 Z 1020,5 2,7 0 0,0
17.10.2017 00:00:00 12,3 12,3 11,5 11,6 13,1 13,1 12,4 15 8 17 9 Z 1020,8 1,1 0 0,0
16.10.2017 23:00:00 12,4 12,4 11,7 11,5 13,3 13,1 12,4 10 6 12 7 ZZO 1020,7 1,1 0 0,0
16.10.2017 22:00:00 12,3 12,3 10,9 11,8 13,5 13,1 12,4 6 4 9 5 ZW 1021,3 0,7 0 0,0
16.10.2017 21:00:00 12,5 12,5 10,7 12,2 13,7 13,1 12,4 6 4 11 6 WZW 1021,0 1,4 0 0,0
16.10.2017 20:00:00 12,4 12,3 11,4 12,7 13,9 13,1 12,5 10 6 17 9 W 1020,9 1,8 0 0,0
16.10.2017 19:00:00 13,1 12,5 12,2 13,3 14,0 13,1 12,5 14 8 25 14 W 1020,8 2,5 0 0,0
16.10.2017 18:00:00 13,8 13,2 13,4 14,5 14,0 13,1 12,5 16 9 27 14 WZW 1020,7 2,4 0 0,0
16.10.2017 17:00:00 14,5 13,4 14,7 15,3 14,0 13,0 12,5 16 9 29 15 WZW 1020,6 3,3 0 0,0
16.10.2017 16:00:00 14,6 13,6 15,1 15,6 13,8 13,0 12,5 25 14 38 21 WZW 1020,6 3,2 0 0,0
16.10.2017 15:00:00 14,6 13,4 15,1 15,7 13,6 13,0 12,5 32 17 39 21 W 1020,6 3,4 0 0,0
16.10.2017 14:00:00 14,9 13,6 15,7 16,1 13,3 13,0 12,5 34 18 44 24 W 1020,5 3,8 14 0,0
16.10.2017 13:00:00 15,3 13,4 16,2 15,9 13,0 13,0 12,5 31 17 45 24 W 1020,2 6 54 0,0
16.10.2017 12:00:00 15,6 13,5 16,7 14,9 12,6 13,0 12,4 34 18 45 24 W 1019,7 6 60 0,0
16.10.2017 11:00:00 15,1 13,0 15,2 13,4 12,5 13,0 12,4 35 19 43 23 W 1019,7 8 60 0,0
16.10.2017 10:00:00 14,6 12,5 13,3 11,8 12,5 13,0 12,4 28 15 37 20 WZW 1019,1 9 60 0,0
16.10.2017 09:00:00 13,2 11,9 11,8 11,1 12,6 13,0 12,4 24 13 31 17 WZW 1018,9 9 40 0,0
16.10.2017 08:00:00 12,3 11,5 10,9 10,9 12,7 13,0 12,4 24 13 31 17 ZW 1018,6 8 0 0,0
16.10.2017 07:00:00 12,7 11,6 11,1 11,2 12,9 13,0 12,4 24 13 31 17 WZW 1018,7 9 0 0,0
16.10.2017 06:00:00 13,7 12,1 11,8 11,4 13,0 13,0 12,4 24 13 36 19 WZW 1018,8 13 0 0,0
16.10.2017 05:00:00 12,7 12,0 11,5 11,5 13,2 13,0 12,4 27 15 31 17 WZW 1018,9 8 0 0,0
16.10.2017 04:00:00 13,1 12,6 11,9 11,7 13,3 13,0 12,4 27 15 30 16 ZW 1019,1 7 0 0,0
16.10.2017 03:00:00 13,7 13,0 12,4 12,0 13,4 13,0 12,4 26 14 31 17 ZW 1019,5 8 0 0,0
16.10.2017 02:00:00 13,9 13,4 12,6 12,3 13,6 12,9 12,5 23 12 34 18 ZW 1019,8 7 0 0,0
16.10.2017 01:00:00 14,2 13,7 13,0 12,5 13,7 12,9 12,5 27 14 33 18 ZW 1019,8 6 0 0,0
16.10.2017 00:00:00 14,2 13,7 13,1 12,7 13,8 12,9 12,5 25 13 31 17 ZW 1020,2 4,7 0 0,0
15.10.2017 23:00:00 14,6 14,1 13,5 13,0 14,0 12,9 12,5 25 14 34 19 ZZW 1020,6 4,8 0 0,0
15.10.2017 22:00:00 14,7 14,1 13,7 13,1 14,1 12,9 12,5 26 14 34 19 ZZW 1021,1 6 0 0,0
15.10.2017 21:00:00 14,1 13,8 13,3 13,1 14,4 12,9 12,5 27 15 34 19 ZZW 1021,5 8 0 0,0
15.10.2017 20:00:00 13,8 13,7 13,1 13,5 14,6 12,9 12,6 24 13 29 16 Z 1021,9 6 0 0,0
15.10.2017 19:00:00 13,8 13,6 13,2 13,9 14,8 12,9 12,6 22 12 27 15 Z 1022,5 6 0 0,0
15.10.2017 18:00:00 13,8 13,4 13,3 15,2 14,9 12,9 12,6 19 10 29 16 Z 1022,6 8 2 0,0
15.10.2017 17:00:00 14,6 13,7 14,9 16,2 14,8 12,9 12,6 21 11 25 14 ZZW 1023,0 9 0 0,0
15.10.2017 16:00:00 15,3 14,3 15,8 16,7 14,7 12,9 12,6 18 10 28 15 ZZW 1023,5 7 0 0,0
15.10.2017 15:00:00 15,7 14,3 16,3 17,1 14,5 12,9 12,6 19 10 30 16 ZW 1024,1 10 0 0,0
15.10.2017 14:00:00 15,4 13,9 16,4 17,5 14,3 12,9 12,5 22 12 29 16 ZW 1024,3 10 2 0,0
15.10.2017 13:00:00 16,8 14,6 18,5 17,7 13,9 12,9 12,5 19 10 30 16 WZW 1024,4 15 60 0,0
15.10.2017 12:00:00 15,8 14,2 17,4 16,0 13,7 12,9 12,5 20 11 28 15 WZW 1024,5 10 24 0,0
15.10.2017 11:00:00 14,6 14,2 15,0 14,8 13,6 12,9 12,5 21 11 31 17 WZW 1024,9 5 0 0,0
15.10.2017 10:00:00 15,0 14,1 14,8 14,4 13,5 12,9 12,4 27 15 35 19 W 1024,6 11 0 0,0
15.10.2017 09:00:00 14,3 14,1 14,1 14,0 13,5 12,9 12,4 27 15 34 18 W 1024,1 4,2 0 0,0
15.10.2017 08:00:00 14,6 14,4 14,3 13,9 13,5 12,9 12,4 29 16 39 21 W 1023,8 6 0 0,0
15.10.2017 07:00:00 14,2 14,2 14,1 13,8 13,5 12,9 12,4 32 17 41 22 W 1023,9 2,5 0 0,0
15.10.2017 06:00:00 14,3 13,9 14,0 13,9 13,5 12,8 12,4 33 18 48 26 W 1023,4 4,2 0 0,0
15.10.2017 05:00:00 14,5 14,0 14,3 13,9 13,5 12,8 12,4 37 20 52 28 WZW 1022,4 5 0 0,0
15.10.2017 04:00:00 14,5 14,0 14,4 13,9 13,6 12,8 12,4 37 20 56 30 W 1022,4 6 0 0,0
15.10.2017 03:00:00 14,8 14,2 14,6 13,9 13,6 12,8 12,3 45 24 59 32 WZW 1022,0 6 0 0,0
15.10.2017 02:00:00 14,5 14,2 14,4 13,9 13,6 12,8 12,4 37 20 50 27 WZW 1021,9 4,7 0 0,0
15.10.2017 01:00:00 14,6 14,1 14,3 13,9 13,6 12,8 12,4 42 23 54 29 W 1022,3 4,2 0 0,0
15.10.2017 00:00:00 14,8 14,0 14,6 13,9 13,6 12,8 12,4 40 22 54 29 WZW 1022,0 6 0 0,0
14.10.2017 23:00:00 14,7 14,1 14,5 13,8 13,6 12,8 12,4 39 21 53 29 WZW 1022,0 7 0 0,0
14.10.2017 22:00:00 14,6 14,3 14,3 13,7 13,7 12,8 12,4 37 20 53 29 WZW 1022,1 5 0 0,0
14.10.2017 21:00:00 14,5 14,2 14,2 13,8 13,8 12,8 12,4 44 24 55 30 W 1022,5 4,2 0 0,0
14.10.2017 20:00:00 14,4 14,4 14,4 14,4 13,8 12,8 12,4 42 23 56 30 W 1022,0 2,0 0 0,0
14.10.2017 19:00:00 14,6 14,5 14,6 14,5 13,8 12,8 12,4 46 25 59 32 W 1021,7 2,2 0 0,0
14.10.2017 18:00:00 14,8 14,5 14,7 14,7 13,8 12,8 12,4 45 24 57 31 W 1021,2 5 0 0,0
14.10.2017 17:00:00 15,1 14,5 15,1 15,2 13,8 12,8 12,4 46 25 60 33 W 1021,1 12 0 0,0
14.10.2017 16:00:00 15,3 14,7 15,5 15,6 13,7 12,8 12,4 46 25 64 34 WZW 1020,5 8 0 0,0
14.10.2017 15:00:00 15,6 14,6 16,1 15,6 13,5 12,8 12,4 49 26 64 35 W 1020,1 9 0 0,0
14.10.2017 14:00:00 15,2 14,9 15,7 15,8 13,3 12,8 12,4 49 26 63 34 W 1020,1 3,7 0 0,0
14.10.2017 13:00:00 15,7 14,9 16,5 16,0 13,1 12,8 12,4 49 26 63 34 W 1020,3 5 0 0,0
14.10.2017 12:00:00 15,7 14,6 16,2 15,3 12,9 12,8 12,4 50 27 64 35 W 1020,0 7 0 0,0
14.10.2017 11:00:00 15,3 14,3 14,9 14,4 12,7 12,8 12,4 45 24 56 31 W 1020,1 6 0 0,2
14.10.2017 10:00:00 15,3 14,1 15,2 13,9 12,6 12,8 12,4 37 20 55 30 WZW 1019,9 6 0 0,0
14.10.2017 09:00:00 15,2 14,0 15,0 13,5 12,5 12,8 12,4 42 23 54 29 W 1019,5 6 0 0,0
14.10.2017 08:00:00 14,8 13,7 14,6 13,2 12,5 12,8 12,4 35 19 47 25 WZW 1019,3 6 0 0,0
14.10.2017 07:00:00 14,9 13,8 14,6 13,1 12,4 12,8 12,4 34 18 52 28 WZW 1019,3 7 0 0,0
14.10.2017 06:00:00 14,7 13,5 14,4 13,0 12,3 12,8 12,4 35 19 47 26 WZW 1019,5 7 0 0,0
14.10.2017 05:00:00 14,6 13,3 14,3 12,8 12,3 12,8 12,4 31 17 46 25 WZW 1019,6 7 0 0,0
14.10.2017 04:00:00 14,4 13,0 14,0 12,6 12,2 12,8 12,4 34 18 49 26 WZW 1019,8 9 0 0,0
14.10.2017 03:00:00 14,0 12,5 13,7 12,4 12,2 12,8 12,4 32 18 40 21 WZW 1020,2 10 0 0,0
14.10.2017 02:00:00 13,3 11,8 13,1 12,3 12,2 12,8 12,4 27 15 36 20 WZW 1020,6 17 0 0,0
14.10.2017 01:00:00 13,6 11,7 13,3 12,2 12,2 12,8 12,4 29 16 38 21 WZW 1020,6 18 0 0,0
14.10.2017 00:00:00 13,6 11,5 13,3 12,1 12,2 12,8 12,4 30 16 39 21 WZW 1020,7 19 0 0,0
13.10.2017 23:00:00 13,2 11,5 12,9 12,1 12,3 12,8 12,4 27 15 39 21 WZW 1021,0 19 0 0,0
13.10.2017 22:00:00 13,3 11,2 12,9 12,1 12,3 12,8 12,4 29 16 36 20 WZW 1021,4 20 0 0,0
13.10.2017 21:00:00 13,1 11,2 12,8 12,1 12,4 12,8 12,4 26 14 35 19 WZW 1021,5 20 0 0,0
13.10.2017 20:00:00 12,9 11,0 12,4 11,9 12,5 12,8 12,4 23 13 31 17 WZW 1021,5 19 0 0,0
13.10.2017 19:00:00 12,5 11,2 11,8 12,4 12,6 12,8 12,4 23 13 32 17 WZW 1021,7 17 0 0,0
13.10.2017 18:00:00 12,5 10,7 12,0 13,1 12,6 12,8 12,4 16 9 23 12 WZW 1021,8 21 0 0,0
13.10.2017 17:00:00 12,8 10,9 12,7 13,8 12,5 12,8 12,4 18 10 31 17 WZW 1021,8 11 3 0,0
13.10.2017 16:00:00 13,7 11,1 14,8 14,8 12,3 12,8 12,4 26 14 34 18 W 1021,7 13 60 0,0
13.10.2017 15:00:00 13,5 10,5 14,6 14,6 11,9 12,8 12,3 28 15 41 22 W 1021,5 21 60 0,0
13.10.2017 14:00:00 13,1 11,4 14,2 14,3 11,6 12,8 12,3 28 15 44 24 W 1021,6 17 58 0,0
13.10.2017 13:00:00 12,7 11,2 13,6 13,4 11,3 12,8 12,3 37 20 45 24 W 1021,2 18 56 0,0
13.10.2017 12:00:00 12,7 11,4 13,2 12,7 11,0 12,8 12,3 33 18 44 24 W 1021,2 18 49 0,0

tt = temperatuur
td = dauwpunt
tt 5cm = temperatuur 5cm
tt -5cm = temperatuur -5cm
tt -20cm = temperatuur -20cm
tt -100cm = temperatuur -100cm
tw = water temperatuur
ff = windsnelheid
fx = windstoten
dd = windrichting
ppp = luchtdruk
vv = zicht
sd = Zonneschijnduur
rr = neerslag

Weerstations in de omgeving